Regional Weather Roundup
Issued by NWS

Home | Current Version | Previous Version | Text Only | Print | Product List | Glossary Off
Versions: 1 2 3 4 5 6 7 8 9 10 11 12 13 14 15 16 17 18 19 20 21 22 23 24 25 26 27 28 29 30 31 32 33 34 35 36 37 38 39 40 41 42 43 44 45 46 47 48 49 50

000
ASUS43 KLOT 202209
RWRIL

ILLINOIS REGIONAL WEATHER ROUNDUP
NATIONAL WEATHER SERVICE CHICAGO/ROMEOVILLE IL
400 PM CST TUE FEB 20 2018

NOTE: "FAIR" INDICATES FEW OR NO CLOUDS BELOW 12,000 FEET WITH NO
SIGNIFICANT WEATHER AND/OR OBSTRUCTIONS TO VISIBILITY.

* THESE STATIONS ARE NOT UNDER NWS QUALITY CONTROL. THEY ALSO MAY NOT
  REPORT WEATHER SUCH AS PRECIPITATION OR FOG.

ILZ001-002-007-009-015-016-024-202300-
NORTHWEST ILLINOIS

CITY           SKY/WX    TMP DP  RH WIND       PRES   REMARKS
MOLINE         MIX PCPN  34  31  88 W13       30.04R WCI  25
STERLING*        N/A    N/A N/A N/A MISG        N/A
SAVANNA*       CLOUDY    33  29  86 W13       30.02R WCI  24
$$

ILZ003-004-008-010-011-017-018-202300-
NORTH CENTRAL ILLINOIS

CITY           SKY/WX    TMP DP  RH WIND       PRES   REMARKS
ROCKFORD       LGT RAIN  35  33  92 W12       29.99R WCI  27
FREEPORT*      CLOUDY    32  32 100 W10       29.99R WCI  24
ROCHELLE*      LGT RAIN  35  35 100 W16       30.00R WCI  25
DE KALB*       LGT RAIN  38  38 100 W10       29.96R WCI  31
PERU*          LGT RAIN  37  35  94 W16G23    30.01R WCI  27
$$

ILZ005-006-012>014-019>023-202300-
NORTHEAST ILLINOIS

CITY           SKY/WX    TMP DP  RH WIND       PRES   REMARKS
CHICAGO-OHARE  LGT RAIN  54  51  90 SW10      29.89R
CHICAGO-MIDWAY LGT RAIN  55  55 100 SW9       29.91R
AURORA         RAIN      44  42  93 W13       29.94R FOG
LANSING*       RAIN      55  55 100 SW7       29.95R
JOLIET*        LGT RAIN  52  52 100 SW6       29.94R
WAUKEGAN       LGT RAIN  48  48 100 SW3       29.87R
DUPAGE AIRPORT RAIN      47  47 100 W10       29.91R FOG
KANKAKEE*      RAIN      54  53  97 CALM      29.95F
WHEELING       LGT RAIN  54  52  93 SW7       29.91R
MORRIS*        RAIN      47  46  95 W10       29.95R
ROMEOVILLE*    LGT RAIN  51  50  97 SW7       29.92R
NORTHERLY ISL    N/A     55  52  89 S3          N/A
$$

LMZ740>746-202300-
SOUTHERN LAKE MICHIGAN

STATION/POSITION SKY/WX   TEMP    WIND        PRES    VSBY  WAVE
                          AIR SEA DIR/SP/G                  HT/PER
                          (F)     (DEG/KT/KT) (MB)    (MI)  (FT/S)
HARRISON CRIB              56     220/ 13/ 14   N/A
BURNHAM HARBOR             55     210/  7/ 11   N/A
CALUMET HARBOR             55     200/  6/  8 1012.6R
BURNS HARBOR               63     200/ 22/ 29 1011.5
MICHIGAN CITY              48                   N/A
$$

ILZ025>027-034>036-040-047-049-050-058-095>099-202300-
WEST-CENTRAL ILLINOIS

CITY           SKY/WX    TMP DP  RH WIND       PRES   REMARKS
QUINCY         LGT RAIN  35  33  92 NW16      30.07R FOG     WCI  25
GALESBURG*     LGT RAIN  34  34 100 NW13G18   30.03S WCI  25
MACOMB*        LGT RAIN  35  35  99 NW14      30.08R WCI  26
JACKSONVILLE*  RAIN      39  38  94 NW17      30.01R WCI  30
PITTSFIELD*    HVY RAIN  38  37  97 NW18G29   30.05R WCI  28
$$

ILZ028>032-037-038-041>044-048-051>054-059>061-202300-
CENTRAL ILLINOIS

CITY           SKY/WX    TMP DP  RH WIND       PRES   REMARKS
PONTIAC        RAIN      51  50  98 SW6       29.97R
BLOOMINGTON    RAIN      53  52  96 S10       29.97R FOG
DECATUR        LGT RAIN  55  55 100 NW8       29.97R FOG
PEORIA         RAIN      39  37  92 NW10G20   30.01R FOG     WCI  32
LACON*         RAIN      38  37  97 NW9G18    30.01R WCI  32
LINCOLN*       RAIN      50  50 100 W5        29.99R
SPRINGFIELD    RAIN      50  48  93 NW15      29.98R FOG
TAYLORVILLE    DRIZZLE   55  55 100 N3        29.97S
$$

ILZ033-039-045-046-055>057-062-063-202300-
EAST-CENTRAL ILLINOIS

CITY           SKY/WX    TMP DP  RH WIND       PRES   REMARKS
CHAMPAIGN      LGT RAIN  56  56 100 NW9       29.97R FOG
DANVILLE*      LGT RAIN  65  62  90 S12       29.92F
RANTOUL*       RAIN      58  57  99 W7        29.97R
MATTOON        LGT RAIN  68  62  81 S13G22    29.95R
PARIS*         CLOUDY    70  63  77 S20G25    29.98R
$$

ILZ079-100>102-202300-
SOUTHWEST ILLINOIS

CITY           SKY/WX    TMP DP  RH WIND       PRES   REMARKS
ALTON          RAIN      55  55 100 W7        29.95R
BELLEVILLE     PTSUNNY   72  62  70 SW15G25   29.93R
CAHOKIA*       CLOUDY    70  60  70 W16G29    29.93R
SPARTA*        CLOUDY    72  63  74 S14G21    29.98S
$$

ILZ064>066-069>071-074>076-080>082-084>086-088>090-092>094-202300-
SOUTH-CENTRAL ILLINOIS

CITY           SKY/WX    TMP DP  RH WIND       PRES   REMARKS
CARBONDALE     PTSUNNY   73  61  65 S20G36    30.00S
CAIRO*         FAIR      74  61  64 S15G21    30.03S
EFFINGHAM*     FAIR      73  61  67 S18G24    29.99R
MARION         CLOUDY    72  59  64 S14G25    30.03
MT. VERNON     FAIR      72  61  68 S22G33    30.00R
CENTRALIA*     CLOUDY    73  63  72 S21G28    29.98R
SALEM*         CLOUDY    73  61  65 S23G33    29.98R
METROPOLIS*    FAIR      76  59  55 S14G21    30.05F
$$

ILZ067-068-072-073-078-083-087-091-202300-
SOUTHEAST ILLINOIS

CITY           SKY/WX    TMP DP  RH WIND       PRES   REMARKS
LAWRENCEVILLE  PTSUNNY   76  58  53 S24G33    30.02R
FLORA*         FAIR      74  61  62 S25G32    30.00R
FAIRFIELD*     PTSUNNY   73  60  65 S15       30.01S
HARRISBURG*    CLOUDY    74  60  62 S22G28    30.04S
ROBINSON*      PTSUNNY   74  58  58 S20       30.01R
CARMI*         FAIR      74  59  59 S20G31    30.04R
$$

ABBREVIATIONS USED IN REMARKS
   TC - TEMPERATURE IN CELSIUS
  WCI - WIND CHILL INDEX
   HX - HEAT INDEX
  VSB - VISIBILITY
$$





USA.gov is the U.S. government's official web portal to all federal, state and local government web resources and services.